Location: Ferchesar
(52.6477°N, 12.4298°E)
Time: 10:07:35
(UTC+01:00)

S-56A Canister/Altair - Pass Details

Date: 15 December 2021
Orbit: 633 x 2499 km, 38.9° (Epoch: 19 January)

Event Time Altitude Azimuth Distance (km) Brightness Sun altitude
Rises 19:34:19 0° 215° (SW) 6,169 12.5 -31.6°
Reaches altitude 10° 19:39:12 10° 205° (SSW) 5,117 11.9 -32.4°
Enters shadow 19:50:22 29° 156° (SSE) 3,460 10.5 -34.1°
Maximum altitude 19:50:35 29° 154° (SSE) 3,451 - -34.1°
Drops below altitude 10° 19:59:58 10° 101° (E) 4,190 - -35.5°
Sets 20:03:28 0° 91° (E) 4,918 - -36.0°
